Roseau, MN

9:11 AM CDT on August 20, 2017 (GMT -0500)
Roseau Municipal-Billberg

Weather History for KROX - October, 2012

Change the Weather History Date:

Saturday, October 6, 2012

  Actual Average Record
Temperature  
Mean Temperature 32 °F -  
Max Temperature 39 °F 55 °F 84 °F (1961)
Min Temperature 24 °F 34 °F 21 °F (2001)
Degree Days  
Heating Degree Days 34    
Moisture  
Dew Point 27 °F    
Average Humidity 79    
Maximum Humidity 86    
Minimum Humidity 70    
Precipitation  
Precipitation 0.00 in - - ()
Sea Level Pressure  
Sea Level Pressure 30.24 in    
Wind  
Wind Speed 8 mph (West)    
Max Wind Speed 10 mph    
Max Gust Speed -    
Visibility 9 miles    
Events Fog    
Averages and records for this station are not official NWS values.
T = Trace of Precipitation, MM = Missing Value Source: NWS Daily Summary

Daily Weather History Graph

Daily Weather History Graph

Search for Another Location

Airport or City:

Trip Planner

Search our weather history database for the weather conditions in past years. The results will help you decide how hot, cold, wet, or windy it might be!

Date:

Astronomy

Oct. 06, 2012 Rise Set
Actual Time 7:30 AM CDT 6:50 PM CDT
Civil Twilight 6:58 AM CDT 7:21 PM CDT
Nautical Twilight 6:22 AM CDT 7:58 PM CDT
Astronomical Twilight 5:45 AM CDT 8:34 PM CDT
Moon 10:43 PM CDT (10/6) 1:49 PM CDT (10/6)
Length of Visible Light 12h 22m
Length of Day
11h 19m
Waning Gibbous, 65% of the Moon is Illuminated
Oct 6
Waning Gibbous
Oct 8
Last Quarter
Oct 15
New
Oct 21
First Quarter
Oct 29
Full

Hourly Weather History & Observations

Time (CDT) Temp. Windchill Dew Point Humidity Pressure Visibility Wind Dir Wind Speed Gust Speed Precip Events Conditions
12:14 AM 33.8 °F 25.8 °F 28.4 °F 81% 30.25 in 10.0 mi NNW 10.4 mph - N/A   Clear
12:34 AM 33.8 °F 25.8 °F 28.4 °F 81% 30.25 in 10.0 mi NNW 10.4 mph - N/A   Scattered Clouds
12:55 AM 33.8 °F 26.4 °F 28.4 °F 81% 30.26 in 10.0 mi NNW 9.2 mph - N/A   Scattered Clouds
1:14 AM 32.0 °F 24.2 °F 26.6 °F 80% 30.26 in 10.0 mi NW 9.2 mph - N/A   Clear
1:34 AM 32.0 °F 24.8 °F 26.6 °F 80% 30.26 in 10.0 mi NW 8.1 mph - N/A   Scattered Clouds
1:55 AM 30.2 °F 21.9 °F 26.6 °F 86% 30.26 in 10.0 mi NW 9.2 mph - N/A   Clear
2:14 AM 30.2 °F 23.4 °F 26.6 °F 86% 30.26 in 10.0 mi NW 6.9 mph - N/A   Scattered Clouds
2:34 AM 30.2 °F 24.3 °F 24.8 °F 80% 30.27 in 10.0 mi WNW 5.8 mph - N/A   Scattered Clouds
2:55 AM 30.2 °F 24.3 °F 24.8 °F 80% 30.27 in 10.0 mi WNW 5.8 mph - N/A   Clear
3:14 AM 28.4 °F 22.2 °F 24.8 °F 86% 30.27 in 10.0 mi WNW 5.8 mph - N/A   Clear
3:34 AM 28.4 °F 22.2 °F 24.8 °F 86% 30.27 in 10.0 mi WNW 5.8 mph - N/A   Clear
3:55 AM 28.4 °F 21.2 °F 24.8 °F 86% 30.27 in 10.0 mi WNW 6.9 mph - N/A   Scattered Clouds
4:34 AM 28.4 °F 20.4 °F 23.0 °F 80% 30.27 in 10.0 mi WNW 8.1 mph - N/A   Clear
4:55 AM 28.4 °F 21.2 °F 23.0 °F 80% 30.27 in 10.0 mi WNW 6.9 mph - N/A   Clear
5:14 AM 26.6 °F 19.1 °F 23.0 °F 86% 30.27 in 10.0 mi WNW 6.9 mph - N/A   Clear
5:34 AM 26.6 °F 19.1 °F 21.2 °F 80% 30.27 in 10.0 mi WNW 6.9 mph - N/A   Clear
5:55 AM 26.6 °F 20.0 °F 21.2 °F 80% 30.28 in 10.0 mi WNW 5.8 mph - N/A   Clear
6:14 AM 26.6 °F 20.0 °F 21.2 °F 80% 30.28 in 10.0 mi West 5.8 mph - N/A   Clear
6:34 AM 24.8 °F 17.9 °F 21.2 °F 86% 30.28 in 10.0 mi WNW 5.8 mph - N/A   Clear
6:54 AM 24.8 °F 17.9 °F 21.2 °F 86% 30.29 in 10.0 mi WNW 5.8 mph - N/A   Clear
7:14 AM 24.8 °F 16.1 °F 21.2 °F 86% 30.29 in 10.0 mi WNW 8.1 mph - N/A   Clear
7:35 AM 24.8 °F 17.9 °F 21.2 °F 86% 30.29 in 1.0 mi WNW 5.8 mph - N/A   Overcast
7:54 AM 24.8 °F 17.9 °F 19.4 °F 80% 30.29 in 0.2 mi West 5.8 mph - N/A   Haze
8:14 AM 24.8 °F 17.9 °F 21.2 °F 86% 30.30 in 0.2 mi WNW 5.8 mph - N/A Fog Light Freezing Fog
8:35 AM 24.8 °F 17.9 °F 21.2 °F 86% 30.29 in 0.2 mi WNW 5.8 mph - N/A Fog Light Freezing Fog
8:54 AM 26.6 °F 19.1 °F 21.2 °F 80% 30.29 in 0.2 mi WNW 6.9 mph - N/A   Haze
9:14 AM 26.6 °F 20.0 °F 21.2 °F 80% 30.30 in 0.5 mi WNW 5.8 mph - N/A Fog Light Freezing Fog
9:35 AM 26.6 °F 20.0 °F 23.0 °F 86% 30.30 in 0.5 mi WNW 5.8 mph - N/A Fog Light Freezing Fog
9:54 AM 28.4 °F 22.2 °F 23.0 °F 80% 30.30 in 4.0 mi West 5.8 mph - N/A   Haze
10:14 AM 28.4 °F 21.2 °F 24.8 °F 86% 30.30 in 10.0 mi West 6.9 mph - N/A   Clear
10:35 AM 28.4 °F 20.4 °F 24.8 °F 86% 30.30 in 10.0 mi West 8.1 mph - N/A   Clear
10:54 AM 30.2 °F 22.6 °F 24.8 °F 80% 30.31 in 10.0 mi West 8.1 mph - N/A   Clear
11:14 AM 30.2 °F 21.9 °F 26.6 °F 86% 30.31 in 10.0 mi West 9.2 mph - N/A   Clear
11:35 AM 30.2 °F 21.3 °F 24.8 °F 80% 30.31 in 1.0 mi West 10.4 mph - N/A   Haze
11:54 AM 30.2 °F 22.6 °F 26.6 °F 86% 30.31 in 1.5 mi West 8.1 mph - N/A   Haze
12:14 PM 32.0 °F 25.6 °F 26.6 °F 80% 30.31 in 7.0 mi West 6.9 mph - N/A   Scattered Clouds
12:35 PM 33.8 °F 27.7 °F 28.4 °F 81% 30.30 in 10.0 mi West 6.9 mph - N/A   Clear
12:54 PM 35.6 °F 30.7 °F 30.2 °F 81% 30.29 in 10.0 mi WNW 5.8 mph - N/A   Clear
1:14 PM 37.4 °F 31.4 °F 30.2 °F 75% 30.28 in 10.0 mi West 8.1 mph - N/A   Clear
1:35 PM 37.4 °F 30.8 °F 32.0 °F 81% 30.28 in 10.0 mi West 9.2 mph - N/A   Clear
1:54 PM 37.4 °F 31.4 °F 30.2 °F 75% 30.27 in 10.0 mi West 8.1 mph - N/A   Clear
2:14 PM 39.2 °F 33.0 °F 32.0 °F 75% 30.26 in 10.0 mi West 9.2 mph - N/A   Clear
2:34 PM 39.2 °F 33.0 °F 32.0 °F 75% 30.25 in 10.0 mi West 9.2 mph - N/A   Clear
2:54 PM 39.2 °F 33.6 °F 32.0 °F 75% 30.24 in 10.0 mi West 8.1 mph - N/A   Clear
3:14 PM 39.2 °F 32.5 °F 30.2 °F 70% 30.24 in 10.0 mi West 10.4 mph - N/A   Clear
3:21 PM 39.2 °F 32.5 °F 30.2 °F 70% 30.24 in 10.0 mi West 10.4 mph - N/A   Clear
3:41 PM 39.2 °F 33.0 °F 30.2 °F 70% 30.23 in 10.0 mi WSW 9.2 mph - N/A   Clear
4:01 PM 39.2 °F 32.5 °F 30.2 °F 70% 30.22 in 10.0 mi WSW 10.4 mph - N/A   Clear
4:21 PM 39.2 °F 32.5 °F 30.2 °F 70% 30.22 in 10.0 mi SW 10.4 mph - N/A   Clear
5:01 PM 39.2 °F 33.0 °F 30.2 °F 70% 30.20 in 10.0 mi SW 9.2 mph - N/A   Clear
5:21 PM 39.2 °F 34.2 °F 30.2 °F 70% 30.19 in 10.0 mi SW 6.9 mph - N/A   Clear
5:41 PM 37.4 °F 32.1 °F 30.2 °F 75% 30.19 in 10.0 mi SSW 6.9 mph - N/A   Clear
6:01 PM 37.4 °F 32.1 °F 30.2 °F 75% 30.18 in 10.0 mi SSW 6.9 mph - N/A   Clear
6:21 PM 37.4 °F 32.1 °F 30.2 °F 75% 30.17 in 10.0 mi SSW 6.9 mph - N/A   Clear
6:41 PM 37.4 °F 32.1 °F 30.2 °F 75% 30.16 in 10.0 mi SSW 6.9 mph - N/A   Clear
7:01 PM 35.6 °F 30.7 °F 28.4 °F 75% 30.16 in 10.0 mi SSW 5.8 mph - N/A   Clear
7:21 PM 35.6 °F 30.7 °F 28.4 °F 75% 30.15 in 10.0 mi South 5.8 mph - N/A   Clear
7:41 PM 35.6 °F 29.9 °F 28.4 °F 75% 30.14 in 10.0 mi South 6.9 mph - N/A   Clear
8:01 PM 33.8 °F 28.6 °F 28.4 °F 81% 30.14 in 10.0 mi South 5.8 mph - N/A   Clear
8:21 PM 33.8 °F 27.7 °F 28.4 °F 81% 30.14 in 10.0 mi South 6.9 mph - N/A   Clear
9:01 PM 35.6 °F 29.2 °F 28.4 °F 75% 30.12 in 10.0 mi SSW 8.1 mph - N/A   Clear
9:21 PM 35.6 °F 28.6 °F 28.4 °F 75% 30.11 in 10.0 mi SSW 9.2 mph - N/A   Clear
9:41 PM 35.6 °F 29.2 °F 28.4 °F 75% 30.11 in 10.0 mi SSW 8.1 mph - N/A   Clear
10:01 PM 35.6 °F 28.6 °F 28.4 °F 75% 30.10 in 10.0 mi SSW 9.2 mph - N/A   Clear
10:21 PM 35.6 °F 28.6 °F 28.4 °F 75% 30.09 in 10.0 mi SSW 9.2 mph - N/A   Clear
10:41 PM 33.8 °F 26.4 °F 28.4 °F 81% 30.08 in 10.0 mi SSW 9.2 mph - N/A   Clear